Location: Boncourt
(49.6160°N, 3.9448°E)
Time: 23:05:58
(UTC+00:00)

Cosmos 1745 Rocket - Pass Details

Date: 09 February 2023
Orbit: 952 x 998 km, 83.0° (Epoch: 01 April)

Event Time Altitude Azimuth Distance (km) Brightness Sun altitude
Rises 18:14:11 0° 350° (N) 3,689 7.1 -13.6°
Reaches altitude 10° 18:16:43 10° 350° (N) 2,730 6.4 -14.0°
Maximum altitude 18:22:58 88° 265° (W) 973 4.0 -15.0°
Drops below altitude 10° 18:29:08 10° 174° (S) 2,682 6.3 -16.0°
Sets 18:31:36 0° 174° (S) 3,620 7.0 -16.4°
